Flag for Brazil Weather past 2 weeks in Florianópolis, Santa Catarina, Brazil

Now
73 °F

Scattered clouds.


Feels Like: 74 °F
Forecast: 69 / 79 °F
Wind: 10 mph from North

Location: Florianopolis Aeroporto


UV Index: 0 (Low)

Visibility: N/A


Pressure: 29.89 "Hg

Humidity: 78%

Dew point: 66 °F

Location of FlorianópolisLocation

Historic Weather in Florianópolis

°F

Florianópolis temperature yesterday

Maximum temperature yesterday: 75 °F (at 5:00 PM)
Minimum temperature yesterday: 66 °F (at 3:00 AM)
Average temperature yesterday: 70 °F

Past Weeks' High & Low Weather Summary

 TemperatureHumidityPressure
High84 °F (Apr 6, 2:00 PM)100% (Apr 6, 9:00 AM)30.18 "Hg (Apr 6, 9:00 AM)
Low59 °F (Apr 6, 9:00 AM)47% (Apr 14, 12:00 PM)29.74 "Hg (Apr 9, 3:00 PM)
Average73 °F77%30.00 "Hg
* Reported Apr 3 7:00 AM — Apr 18 7:00 AM, Florianópolis, Weather by CustomWeather, © 2014

Note: Actual official high and low records may vary slightly from our data, if they occured in-between our weather recording intervals... More about our weather records

Advertising

Historic Weather Conditions — Data for Previous 24 hours

 ConditionsComfort  
Time TempWeatherWind HumidityBarometerVisibility
7:00 AM
Apr 18
72 °FScattered clouds.12 mph83%29.89 "HgN/A
6:00 AM72 °FPartly sunny.12 mph83%29.92 "HgN/A
5:00 AM70 °FPassing clouds.8 mph88%29.92 "HgN/A
4:00 AM72 °FPassing clouds.8 mph83%29.92 "HgN/A
3:00 AM72 °FPassing clouds.9 mph83%29.92 "HgN/A
2:00 AM72 °FPartly cloudy.8 mph83%29.95 "HgN/A
1:00 AM72 °FPassing clouds.8 mph88%29.95 "HgN/A
12:00 AM72 °FPassing clouds.8 mph88%29.98 "HgN/A
11:00 PM
Apr 17
72 °FPassing clouds.5 mph83%29.98 "HgN/A
10:00 PM72 °FPartly cloudy.6 mph83%29.98 "HgN/A
9:00 PM72 °FPartly cloudy.5 mph88%30.01 "HgN/A
8:00 PM72 °FPassing clouds.5 mph83%29.98 "HgN/A
7:00 PM72 °FPassing clouds.6 mph83%30.01 "HgN/A
6:00 PM72 °FPassing clouds.6 mph78%29.98 "HgN/A
5:00 PM75 °FPassing clouds.8 mph69%29.98 "HgN/A
4:00 PM73 °FScattered clouds.7 mph78%29.98 "HgN/A
3:00 PM73 °FBroken clouds.8 mph83%29.98 "HgN/A
2:00 PM73 °FBroken clouds.2 mph69%30.01 "HgN/A
1:00 PM70 °FLight rain. Broken clouds.2 mph88%30.04 "Hg5 mi
12:00 PM70 °FLight rain. Partly sunny.5 mph88%30.07 "HgN/A
11:00 AM70 °FLight rain. Partly sunny.3 mph88%30.07 "Hg2 mi
10:00 AM68 °FFog.1 mph94%30.09 "Hg2 mi
9:00 AM68 °FLight rain. Partly sunny.2 mph88%30.07 "Hg1 mi
8:00 AM68 °FLight rain. Partly sunny.3 mph88%30.04 "Hg1 mi
Weather by CustomWeather, © 2014

See weather overview